THOR ABLESTAR DEB, 545

Orbit data source: Space-Track

THOR ABLESTAR DEB, 545 is space debris in LEO originally from a launch on Thu, 29 Jun 1961 UTC launched from the Air Force Eastern Test Range (AFETR). Debris objects in space refer to the collection of defunct objects orbiting the Earth. Examples of debris include non-operational satellites, rocket bodies, and fragments generated from explosions, collisions, or faulty payload assembly.

Loading next visibility...
Identifier
545, 1961-015GE
Orbit
LEO
Country
Flag of USUS
Related business
Manufacturer
Unknown
Mission
Spacecraft
Bus & Motor
Unknown
Mass
Unknown
Launch date (UTC)
1961-06-29 (65 years ago)
Launch vehicle
Unknown
Launch site
Air Force Eastern Test Range (AFETR)
Object type
Payload
Rocket body
Debris
Shape & HBR
Unknown shape, 0.1 m
Radar Cross Section
Small (<0.1 m²)

Expand to show TLE details & history
Last TLE update: 7 hours ago

TLE from 7 hours ago
0 THOR ABLESTAR DEB
1   545U 61015GE  26120.09335252  .00000383  00000-0  46575-3 0  9991
2   545  67.2340  26.2207 0151798  83.3629 278.4695 13.71059366223693
Epoch: 2026-04-30T02:14Z
TLE epoch observation values (Epoch: 2026-04-30T02:14:25.657Z)
Latitude
-0.00001°
Longitude
134.56888°
Altitude
983.039 km
Speed
7.368 km/s
True Right ascension
01h 44m 52s
True Declination
0° 00' 00"
Sunlit
Object was in daylight at epoch
Visualization orbit readout
Latitude
Unknown
Longitude
Unknown
Altitude
Unknown
Speed
Unknown
Apparent Right ascension
Unknown
Apparent Declination
Unknown
Sunlit
N/A
Visualization observer readout
Local Sidereal Time
16:37:00
Azimuth
Unknown
Elevation
Unknown
Doppler factor
Unknown
Orbital elements
Apogee altitude
1,106.039 km
Perigee altitude
882.22 km
Semi-major axis
7,372.267 km
Eccentricity
0.01518
Inclination
67.234°
RAAN
26.2207°
Arg. of periapsis
83.3629°
True anomaly
276.74443°
Mean anomaly
278.4695°
Eccentric anomaly
277.60742°
Mean motion
3.4288 °/min
Orbital period
104.99 mins
BSTAR
0.00046575
Loading maneuver chart data...
Computing Atmospheric mass density...

Documentation

Showing up to 5 results
|